Location: *
(13.0000°N, 151.6000°E)
Time: 03:23:49
(UTC+00:00)

FENGYUN 3A - Pass Details

Date: 01 April 2020
Orbit: 823 x 837 km, 98.4° (Epoch: 23 May)

Event Time Altitude Azimuth Distance (km) Brightness Sun altitude
Rises 18:47:55 0° 9° (N) 3,356 7.1 -15.7°
Reaches altitude 10° 18:50:16 10° 8° (N) 2,421 6.3 -15.1°
Maximum altitude 18:55:37 76° 283° (WNW) 847 3.6 -13.8°
Drops below altitude 10° 19:00:58 10° 198° (SSW) 2,414 5.8 -12.5°
Sets 19:03:18 0° 196° (SSW) 3,346 6.6 -11.9°
